Regional Weather Roundup
Issued by NWS

Home | Current Version | Previous Version | Text Only | Print | Product List | Glossary On
Versions: 1 2 3 4 5 6 7 8 9 10 11 12 13 14 15 16 17 18 19 20 21 22 23 24 25 26 27 28 29 30 31 32 33 34 35 36 37 38 39 40 41 42 43 44 45 46 47 48 49 50
764
ASUS43 KFSD 260810
RWRSD

WEATHER ROUNDUP FOR SOUTH DAKOTA
NATIONAL WEATHER SERVICE SIOUX FALLS SD
300 AM CDT WED APR 26 2017

NOTE: "FAIR" INDICATES FEW OR NO CLOUDS BELOW 12,000 FEET WITH NO
SIGNIFICANT WEATHER AND/OR OBSTRUCTIONS TO VISIBILITY.


SDZ001>005-009-010-012>017-260900-
NORTHWEST AND NORTH CENTRAL SOUTH DAKOTA

CITY           SKY/WX    TMP DP  RH WIND       PRES   REMARKS
BUFFALO          N/A     31  25  78 NW9       29.83F WCI  23
FAITH            N/A     31  27  85 N14       29.85F WCI  21
MOBRIDGE       CLOUDY    35  25  66 N15G24    29.80F WCI  25
$$

SDZ012>016-024>037-041>051-057-063-072>074-260900-
SOUTHWEST AND SOUTH CENTRAL SOUTH DAKOTA

CITY           SKY/WX    TMP DP  RH WIND       PRES   REMARKS
RAPID CTY ARPT CLOUDY    27  24  89 NW17      29.87F WCI  14
PIERRE         CLOUDY    32  28  85 N13       29.81F WCI  22
CUSTER         CLOUDY    24  19  81 W3        29.78F
ELLSWORTH AFB  CLOUDY    27  27 100 NW15      29.86F WCI  15
PHILIP         LGT SNOW  31  29  92 NW13      29.86F FOG     WCI  21
PINE RIDGE     CLOUDY    29  25  85 N14       29.86F WCI  18
SPEARFISH      CLOUDY    25  25 100 NW6       29.88F WCI  18
WINNER         CLOUDY    33  29  85 NW18G25   29.80F WCI  22
$$

SDZ004>011-016>023-039-040-260900-
NORTHEAST SOUTH DAKOTA

CITY           SKY/WX    TMP DP  RH WIND       PRES   REMARKS
ABERDEEN       LGT SNOW  31  27  85 N17       29.78S FOG     WCI  19
WATERTOWN      FRZ RAIN  31  30  96 N21       29.67R FOG     WCI  18
BROOKINGS      MIX PCPN  33  32  96 NW18G24   29.64R WCI  22
SISSETON         N/A     32  31  96 N18       29.70F WCI  20
$$

SDZ017-020-022-023-036>040-048>070-260900-
SOUTHEAST SOUTH DAKOTA

CITY           SKY/WX    TMP DP  RH WIND       PRES   REMARKS
SIOUX FALLS    CLOUDY    36  36 100 NW18      29.62F
HURON          CLOUDY    32  31  96 N17       29.74F WCI  21
CHAMBERLAIN    CLOUDY    34  31  88 W16G23    29.79S WCI  24
MITCHELL       CLOUDY    33  31  92 NW22G29   29.74F WCI  21
YANKTON        CLOUDY   N/A N/A N/A NW23G29   29.67F
$$

ABBREVIATIONS USED IN REMARKS
   TC - TEMPERATURE IN CELSIUS
  WCI - WIND CHILL INDEX
   HX - HEAT INDEX
  VSB - VISIBILITY





USA.gov is the U.S. government's official web portal to all federal, state and local government web resources and services.